When you browse on this site, cookies collect data to enhance your experience and personalize the content and advertising you see.
Visit our Privacy Policy to learn more. By continuing to use the site, you agree to this use of cookies and data.

Hourly Weather Khamgaon

Today, 28 September, Monday

Time Temperature Precipitation Wind Pressure Humidity
00:00 +25°C° 0 mm 2 mps 728 mmHg 86%
01:00 +25°C° 0 mm 2 mps 727 mmHg 87%
02:00 +25°C° 0 mm 3 mps 727 mmHg 89%
03:00 +24°C° 0 mm 3 mps 727 mmHg 90%
04:00 +24°C° 0 mm 3 mps 727 mmHg 91%
05:00 +24°C° 0 mm 2 mps 728 mmHg 91%
06:00 +25°C° 0 mm 3 mps 728 mmHg 88%
07:00 +26°C° 0 mm 3 mps 729 mmHg 85%
08:00 +27°C° 0 mm 3 mps 729 mmHg 82%
09:00 +28°C° 0 mm 3 mps 729 mmHg 76%
10:00 +29°C° 0 mm 3 mps 729 mmHg 71%
11:00 +32°C° 0 mm 4 mps 729 mmHg 65%
12:00 +32°C° 0 mm 4 mps 728 mmHg 63%
13:00 +32°C° 0 mm 4 mps 727 mmHg 61%
14:00 +33°C° 0 mm 4 mps 727 mmHg 59%
15:00 +31°C° 0 mm 3 mps 727 mmHg 62%
16:00 +31°C° 0 mm 3 mps 726 mmHg 66%
17:00 +30°C° 0 mm 3 mps 726 mmHg 70%
18:00 +29°C° 0 mm 2 mps 727 mmHg 72%
19:00 +28°C° 0 mm 2 mps 727 mmHg 75%
20:00 +27°C° 0 mm 2 mps 728 mmHg 77%
21:00 +26°C° 0 mm 2 mps 728 mmHg 78%
22:00 +26°C° 0 mm 2 mps 728 mmHg 79%
23:00 +26°C° 0 mm 2 mps 728 mmHg 80%

Tomorrow, 29 September, Tuesday

Time Temperature Precipitation Wind Pressure Humidity
00:00 +25°C° 0 mm 2 mps 727 mmHg 80%
01:00 +25°C° 0 mm 2 mps 727 mmHg 80%
02:00 +25°C° 0 mm 2 mps 727 mmHg 81%
03:00 +24°C° 0 mm 2 mps 727 mmHg 82%
04:00 +24°C° 0 mm 2 mps 727 mmHg 83%
05:00 +24°C° 0 mm 2 mps 726 mmHg 84%
06:00 +25°C° 0 mm 3 mps 727 mmHg 83%
07:00 +26°C° 0 mm 3 mps 728 mmHg 81%
08:00 +27°C° 0 mm 4 mps 729 mmHg 80%
09:00 +28°C° 0 mm 4 mps 728 mmHg 75%
10:00 +29°C° 0 mm 4 mps 728 mmHg 70%
11:00 +32°C° 0 mm 4 mps 728 mmHg 65%
12:00 +32°C° 0 mm 4 mps 727 mmHg 63%
13:00 +33°C° 0 mm 4 mps 727 mmHg 62%
14:00 +33°C° 0 mm 4 mps 726 mmHg 60%
15:00 +31°C° 0 mm 3 mps 726 mmHg 63%
16:00 +31°C° 0 mm 3 mps 726 mmHg 67%
17:00 +30°C° 0 mm 3 mps 725 mmHg 70%
18:00 +29°C° 0 mm 2 mps 726 mmHg 73%
19:00 +28°C° 0 mm 2 mps 727 mmHg 76%
20:00 +27°C° 0 mm 2 mps 727 mmHg 79%
21:00 +27°C° 0 mm 2 mps 727 mmHg 80%
22:00 +26°C° 0 mm 2 mps 727 mmHg 81%
23:00 +26°C° 0 mm 2 mps 727 mmHg 82%

Day after tomorrow, 30 September, Wednesday

Time Temperature Precipitation Wind Pressure Humidity
00:00 +26°C° 0 mm 2 mps 726 mmHg 83%
01:00 +25°C° 0 mm 2 mps 726 mmHg 84%
02:00 +25°C° 0 mm 2 mps 726 mmHg 85%
03:00 +25°C° 0 mm 2 mps 726 mmHg 86%
04:00 +25°C° 0 mm 2 mps 726 mmHg 87%
05:00 +24°C° 0 mm 2 mps 726 mmHg 88%
06:00 +25°C° 0 mm 3 mps 726 mmHg 85%
07:00 +26°C° 0 mm 3 mps 727 mmHg 83%
08:00 +27°C° 0 mm 4 mps 728 mmHg 80%
09:00 +28°C° 0 mm 4 mps 728 mmHg 75%
10:00 +30°C° 0 mm 4 mps 728 mmHg 70%
11:00 +32°C° 0 mm 4 mps 728 mmHg 66%
12:00 +32°C° 0 mm 4 mps 727 mmHg 64%
13:00 +33°C° 0 mm 4 mps 726 mmHg 63%
14:00 +33°C° 0 mm 4 mps 726 mmHg 62%
15:00 +31°C° 0.1 mm 3 mps 725 mmHg 65%
16:00 +31°C° 0.1 mm 3 mps 725 mmHg 69%
17:00 +30°C° 0.1 mm 3 mps 725 mmHg 72%
18:00 +29°C° 0 mm 2 mps 726 mmHg 74%
19:00 +28°C° 0 mm 2 mps 726 mmHg 77%
20:00 +27°C° 0 mm 1 mps 727 mmHg 79%
21:00 +27°C° 0 mm 2 mps 727 mmHg 80%
22:00 +27°C° 0 mm 2 mps 727 mmHg 80%
23:00 +26°C° 0 mm 2 mps 727 mmHg 81%

1 October, Thursday

Time Temperature Precipitation Wind Pressure Humidity
00:00 +26°C° 0 mm 2 mps 726 mmHg 82%
01:00 +26°C° 0 mm 3 mps 726 mmHg 82%
02:00 +25°C° 0 mm 3 mps 726 mmHg 83%
03:00 +25°C° 0 mm 3 mps 726 mmHg 84%
04:00 +25°C° 0 mm 3 mps 726 mmHg 85%
05:00 +25°C° 0 mm 3 mps 726 mmHg 86%
06:00 +25°C° 0 mm 4 mps 726 mmHg 84%
07:00 +26°C° 0 mm 4 mps 727 mmHg 82%
08:00 +27°C° 0 mm 4 mps 728 mmHg 80%
09:00 +29°C° 0 mm 4 mps 728 mmHg 75%
10:00 +30°C° 0 mm 4 mps 728 mmHg 69%
11:00 +32°C° 0 mm 4 mps 728 mmHg 64%
12:00 +33°C° 0.1 mm 4 mps 727 mmHg 61%
13:00 +33°C° 0.1 mm 4 mps 726 mmHg 59%
14:00 +34°C° 0.1 mm 4 mps 726 mmHg 57%
15:00 +33°C° 0.1 mm 3 mps 726 mmHg 60%
16:00 +33°C° 0.1 mm 3 mps 726 mmHg 64%
17:00 +31°C° 0.1 mm 3 mps 725 mmHg 67%
18:00 +30°C° 0 mm 2 mps 726 mmHg 69%
19:00 +28°C° 0 mm 2 mps 726 mmHg 72%
20:00 +27°C° 0 mm 1 mps 727 mmHg 74%
21:00 +27°C° 0 mm 1 mps 727 mmHg 74%
22:00 +27°C° 0 mm 2 mps 727 mmHg 75%
23:00 +27°C° 0 mm 2 mps 727 mmHg 76%

2 October, Friday

Time Temperature Precipitation Wind Pressure Humidity
00:00 +26°C° 0 mm 2 mps 727 mmHg 78%
01:00 +26°C° 0 mm 3 mps 726 mmHg 81%
02:00 +25°C° 0 mm 3 mps 726 mmHg 84%
03:00 +25°C° 0 mm 3 mps 726 mmHg 85%
04:00 +25°C° 0 mm 3 mps 726 mmHg 87%
05:00 +25°C° 0 mm 3 mps 726 mmHg 89%
06:00 +25°C° 0 mm 3 mps 726 mmHg 86%
07:00 +26°C° 0 mm 3 mps 727 mmHg 84%
08:00 +27°C° 0 mm 3 mps 728 mmHg 81%
09:00 +29°C° 0 mm 4 mps 728 mmHg 75%
10:00 +30°C° 0 mm 4 mps 727 mmHg 68%
11:00 +33°C° 0 mm 4 mps 727 mmHg 61%
12:00 +34°C° 0 mm 3 mps 727 mmHg 58%
13:00 +34°C° 0 mm 3 mps 726 mmHg 55%
14:00 +35°C° 0 mm 3 mps 726 mmHg 51%
15:00 +34°C° 0 mm 3 mps 726 mmHg 55%
16:00 +32°C° 0 mm 2 mps 726 mmHg 59%
17:00 +32°C° 0 mm 2 mps 726 mmHg 63%
18:00 +30°C° 0 mm 2 mps 726 mmHg 65%
19:00 +29°C° 0 mm 1 mps 727 mmHg 67%
20:00 +28°C° 0 mm 1 mps 727 mmHg 70%
21:00 +28°C° 0.1 mm 1 mps 727 mmHg 72%
22:00 +27°C° 0.1 mm 2 mps 727 mmHg 74%
23:00 +27°C° 0.1 mm 2 mps 727 mmHg 76%

3 October, Saturday

Time Temperature Precipitation Wind Pressure Humidity
00:00 +27°C° 0 mm 2 mps 727 mmHg 78%
01:00 +26°C° 0 mm 2 mps 726 mmHg 79%
02:00 +26°C° 0 mm 2 mps 726 mmHg 80%
03:00 +26°C° 0 mm 2 mps 726 mmHg 81%
04:00 +26°C° 0 mm 2 mps 726 mmHg 82%
05:00 +25°C° 0 mm 2 mps 726 mmHg 83%
06:00 +26°C° 0 mm 2 mps 727 mmHg 80%
07:00 +28°C° 0 mm 2 mps 727 mmHg 77%
08:00 +29°C° 0 mm 3 mps 728 mmHg 74%
09:00 +30°C° 0 mm 3 mps 728 mmHg 68%
10:00 +31°C° 0 mm 3 mps 728 mmHg 63%
11:00 +34°C° 0 mm 3 mps 728 mmHg 57%
12:00 +34°C° 0 mm 3 mps 728 mmHg 55%
13:00 +34°C° 0 mm 3 mps 727 mmHg 52%
14:00 +35°C° 0 mm 3 mps 726 mmHg 50%
15:00 +34°C° 0 mm 2 mps 726 mmHg 53%
16:00 +34°C° 0 mm 2 mps 726 mmHg 57%
17:00 +32°C° 0 mm 2 mps 726 mmHg 60%
18:00 +31°C° 0 mm 2 mps 727 mmHg 62%
19:00 +30°C° 0 mm 1 mps 727 mmHg 63%
20:00 +29°C° 0 mm 1 mps 728 mmHg 65%
21:00 +29°C° 0 mm 1 mps 728 mmHg 66%
22:00 +28°C° 0 mm 1 mps 728 mmHg 66%
23:00 +28°C° 0 mm 1 mps 728 mmHg 67%
Show more